Regional Weather Roundup
Issued by NWS

Home | Current Version | Previous Version | Graphics & Text | Print | Product List | Glossary On
Versions: 1 2 3 4 5 6 7 8 9 10 11 12 13 14 15 16 17 18 19 20 21 22 23 24 25 26 27 28 29 30 31 32 33 34 35 36 37 38 39 40 41 42 43 44 45 46 47 48 49 50
000
ASUS43 KOAX 192110
RWRNE

WEATHER ROUNDUP FOR NEBRASKA
NATIONAL WEATHER SERVICE OMAHA NE
400 PM CDT WED JUL 19 2017

NOTES: SATELLITE DATA IS BEING USED TO AUGMENT CLOUD COVER ABOVE
       12000 FEET.
       "FAIR" INDICATES FEW OR NO CLOUDS BELOW 12,000 FEET WITH NO
       SIGNIFICANT WEATHER AND/OR OBSTRUCTIONS TO VISIBILITY.


NEZ001>004-019>022-054>056-192200-
NEBRASKA PANHANDLE

CITY           SKY/WX    TMP DP  RH WIND       PRES   REMARKS
SCOTTSBLUFF    SUNNY    102  47  15 VRB5      29.98F HX  98
ALLIANCE       SUNNY    101  50  18 SW8       29.98F HX  98
CHADRON        SUNNY    103  42  12 N14G20    29.91F HX  98
GORDON         FAIR     100  56  23 SW3       29.95F HX  98
KIMBALL        SUNNY     99  49  18 W5        30.07F HX  95
SIDNEY         MOSUNNY  102  55  20 S8G21     30.04F HX 100
$$

NEZ057>060-069>072-079>082-192200-
SOUTHWEST NEBRASKA

CITY           SKY/WX    TMP DP  RH WIND       PRES   REMARKS
NORTH PLATTE   SUNNY    105  59  22 SW13      29.93F HX 105
IMPERIAL       SUNNY    103  51  17 S21G30    29.97F HX 100
LEXINGTON      SUNNY     95  74  50 S13       29.96F HX 105
MCCOOK         SUNNY    107  60  21 SW18G26   29.95F HX 108
OGALLALA       SUNNY    101  61  26 S15G23    29.97F HX 102
$$

NEZ005>010-023>029-035>040-094-192200-
NORTH CENTRAL NEBRASKA

CITY           SKY/WX    TMP DP  RH WIND       PRES   REMARKS
VALENTINE      MOSUNNY  110  51  14 SW18G26   29.85F HX 107
AINSWORTH      MOSUNNY  104  60  23 SW18G25   29.87F HX 104
BROKEN BOW     SUNNY     99  70  38 S20G30    29.94F HX 106
O`NEILL        SUNNY    100  70  37 SE12G21   29.90F HX 107
ORD            SUNNY     95  71  45 S15       29.91F HX 102
THEDFORD       SUNNY    106  58  20 S14G26    29.93F HX 106
$$

NEZ041-046>049-061>064-073>077-083>087-192200-
SOUTH CENTRAL NEBRASKA

CITY           SKY/WX    TMP DP  RH WIND       PRES   REMARKS
GRAND ISLAND   SUNNY     96  75  50 S18       29.94F HX 108
AURORA         SUNNY     93  76  56 S15G21    29.95F HX 105
HASTINGS       SUNNY     95  73  48 S14G23    29.98F HX 104
HEBRON         SUNNY     96  72  44 S15       29.97F HX 104
HOLDREGE       SUNNY     96  73  47 S10       29.97F HX 104
KEARNEY        SUNNY     95  77  55 S15       29.97F HX 109
YORK           SUNNY     91  75  59 S16G28    29.95F HX 102
$$

NEZ011>018-030>034-042>045-192200-
NORTHEAST NEBRASKA

CITY           SKY/WX    TMP DP  RH WIND       PRES   REMARKS
NORFOLK        SUNNY     94  74  52 S20G25    29.92R HX 104
ALBION         SUNNY     96  74  48 S15G23    29.92F HX 106
BLAIR          SUNNY     92  75  57 S20G26    29.95F HX 104
COLUMBUS       SUNNY     93  75  55 S20G26    29.94F HX 104
FREMONT        SUNNY     93  72  49 S17       29.94F HX 101
TEKAMAH        SUNNY     93  74  53 S17G25    29.92F HX 103
WAYNE          SUNNY     95  75  52 S17G24    29.91F HX 106
$$

NEZ050>053-065>068-078-088>093-192200-
SOUTHEAST NEBRASKA

CITY           SKY/WX    TMP DP  RH WIND       PRES   REMARKS
LINCOLN        SUNNY     94  76  55 S24G30    29.94F HX 106
OMAHA EPPLEY   MOSUNNY   95  75  52 S20       29.94F HX 107
BEATRICE       SUNNY     96  75  50 S18G24    29.97F HX 109
FALLS CITY     CLOUDY    89  76  65 S15       29.99F HX 100
NEBRASKA CITY  MOSUNNY   90  81  74 S15       29.97F HX 109
PLATTSMOUTH    SUNNY     91  76  62 S16G23    29.96F HX 103
$$

NEZ044-045-051>053-067-192200-
OMAHA AREA

CITY           SKY/WX    TMP DP  RH WIND       PRES   REMARKS
OMAHA EPPLEY   MOSUNNY   95  75  52 S20       29.94F HX 107
BLAIR          SUNNY     92  75  57 S20G26    29.95F HX 104
FREMONT        SUNNY     93  72  49 S17       29.94F HX 101
MILLARD        SUNNY     96  79  57 S16       29.95S HX 113
OFFUTT AFB     SUNNY     92  78  61 S16G22    29.95F HX 107
PLATTSMOUTH    SUNNY     91  76  62 S16G23    29.96F HX 103
WAHOO          FAIR      93  73  51 S17G24    29.95S HX 102
$$




USA.gov is the U.S. government's official web portal to all federal, state and local government web resources and services.